Waarnemingen

Advertentie
Mijn weer
San Clemente, Spanje (8256): temperatuur & dauwpunt: 13.07.2019 08:00:00 - 19.07.2019 08:00:00 (CEST)San Clemente, Spanje (8256): windsnelheid & windstoten: 13.07.2019 08:00:00 - 19.07.2019 08:00:00 (CEST)San Clemente, Spanje (8256): windrichting: 13.07.2019 08:00:00 - 19.07.2019 08:00:00 (CEST)San Clemente, Spanje (8256): luchtdruk: 13.07.2019 08:00:00 - 19.07.2019 08:00:00 (CEST)San Clemente, Spanje (8256): zicht: 13.07.2019 08:00:00 - 19.07.2019 08:00:00 (CEST)San Clemente, Spanje (8256): Zonneschijnduur: 13.07.2019 08:00:00 - 19.07.2019 08:00:00 (CEST)San Clemente, Spanje (8256): neerslag: 13.07.2019 08:00:00 - 19.07.2019 08:00:00 (CEST)
Datum & Tijd tt [°C] td [°C] ff [km/u] ff [kn] fx [km/u] fx [kn] dd ppp [hPa] vv [km] sd [min] rr [mm]
19.07.2019 08:00:00 - - - - - - - - - - -
19.07.2019 07:00:00 20,0 8,7 11 6 21 12 ZZW 1014,5 18 0 0,0
19.07.2019 06:00:00 20,2 8,3 10 5 20 11 Z 1014,5 18 0 0,0
19.07.2019 05:00:00 20,5 8,8 10 6 23 12 Z 1014,4 19 0 0,0
19.07.2019 04:00:00 21,1 9,3 14 8 29 16 Z 1014,0 20 0 0,0
19.07.2019 03:00:00 21,7 9,6 17 9 32 18 Z 1013,8 19 0 0,0
19.07.2019 02:00:00 22,6 12,0 15 8 32 17 Z 1013,4 18 0 -
19.07.2019 01:00:00 25,0 10,9 19 10 33 18 ZZW 1012,4 17 0 0,0
19.07.2019 00:00:00 26,8 12,1 14 8 35 19 ZZW 1011,6 17 0 0,0
18.07.2019 23:00:00 27,8 9,2 9 5 - - WZW 1011,0 15 0 0,0
18.07.2019 22:00:00 30,0 4,6 4 2 8 5 NNW 1009,8 2,7 7 0,0
18.07.2019 21:00:00 33,1 4,8 5 3 18 10 N 1008,7 20 60 0,0
18.07.2019 20:00:00 34,3 3,9 4 2 - - WNW 1008,1 18 60 -
18.07.2019 19:00:00 35,0 4,5 9 5 - - N 1007,9 19 60 0,0
18.07.2019 18:00:00 34,8 5,3 9 5 23 12 WZW 1008,3 17 60 0,0
18.07.2019 17:00:00 34,4 5,0 9 5 - - NNO 1008,8 20 60 0,0
18.07.2019 16:00:00 34,0 6,4 5 3 21 11 ZZW 1009,3 9 60 0,0
18.07.2019 15:00:00 33,9 7,0 9 5 16 8 NW 1009,8 14 60 0,0
18.07.2019 14:00:00 31,6 9,2 5 3 15 8 O 1010,9 8 60 -
18.07.2019 13:00:00 30,0 10,0 6 4 14 8 ZO 1011,6 8 60 0,0
18.07.2019 12:00:00 28,2 10,4 6 3 13 7 ZW 1012,4 20 60 0,0
18.07.2019 11:00:00 26,2 9,9 5 3 9 5 ZZW 1013,0 3,1 60 0,0
18.07.2019 10:00:00 - - - - - - - - - - -
18.07.2019 09:00:00 21,1 10,5 5 3 10 5 Z 1014,3 16 60 0,0
18.07.2019 08:00:00 17,8 9,2 6 3 11 6 OZO 1014,9 16 44 -
18.07.2019 07:00:00 16,3 9,0 9 5 10 6 O 1014,8 15 0 0,0
18.07.2019 06:00:00 17,7 10,0 4 2 8 5 OZO 1014,4 18 0 0,0
18.07.2019 05:00:00 18,4 10,8 2 1 - - ZZO 1014,1 16 - -
18.07.2019 04:00:00 19,5 11,6 7 4 12 6 ZO 1013,7 18 0 0,0
18.07.2019 03:00:00 20,7 11,9 10 5 18 10 Z 1013,1 18 0 0,0
18.07.2019 02:00:00 22,4 11,1 9 5 23 12 ZZW 1012,7 20 0 -
18.07.2019 01:00:00 23,5 12,2 13 7 27 15 ZZW 1012,2 17 0 0,0
18.07.2019 00:00:00 24,6 14,4 12 7 25 13 Z 1011,4 18 0 0,0
17.07.2019 23:00:00 25,3 12,2 11 6 23 12 Z 1010,9 16 0 0,0
17.07.2019 22:00:00 27,9 4,1 6 4 17 9 NO 1009,6 8 15 0,0
17.07.2019 21:00:00 31,0 4,6 14 8 31 17 N 1008,3 17 60 0,0
17.07.2019 20:00:00 32,5 5,9 20 11 41 22 N 1007,5 17 60 -
17.07.2019 19:00:00 33,2 6,4 20 11 - - N 1007,1 16 60 0,0
17.07.2019 18:00:00 33,7 6,8 15 8 32 17 N 1007,1 15 60 0,0
17.07.2019 17:00:00 32,8 9,6 4 2 18 10 NNO 1007,6 2,2 40 0,0
17.07.2019 16:00:00 32,9 10,3 9 5 28 15 WNW 1008,2 14 53 0,0
17.07.2019 15:00:00 31,8 11,0 11 6 27 14 WZW 1009,0 20 57 0,0
17.07.2019 14:00:00 31,0 11,3 9 5 21 11 ZW 1010,0 13 60 -
17.07.2019 13:00:00 29,4 11,0 5 3 19 10 NW 1011,0 12 60 0,0
17.07.2019 12:00:00 27,7 11,7 4 2 16 8 NW 1011,6 14 60 0,0
17.07.2019 11:00:00 25,7 12,2 5 3 19 11 W 1012,4 14 60 0,0
17.07.2019 10:00:00 22,0 15,1 9 5 - - ZW 1013,6 3,2 - -
17.07.2019 09:00:00 20,2 14,5 9 5 18 10 ZZW 1013,8 17 32 0,0
17.07.2019 08:00:00 18,7 14,6 8 4 14 7 Z 1014,0 1,2 0 -
17.07.2019 07:00:00 18,2 14,5 9 5 17 9 Z 1013,9 12 0 0,0
17.07.2019 06:00:00 18,9 14,6 10 5 21 11 ZZW 1013,4 17 0 0,0
17.07.2019 05:00:00 19,3 14,8 9 5 29 16 ZW 1013,2 16 0 0,0
17.07.2019 04:00:00 19,7 15,2 14 8 27 15 ZZW 1013,4 16 0 0,0
17.07.2019 03:00:00 20,1 15,1 14 8 33 18 ZZW 1013,8 17 0 0,0
17.07.2019 02:00:00 21,1 15,2 16 9 36 19 ZZW 1013,6 17 0 -
17.07.2019 01:00:00 22,2 15,5 18 10 45 25 ZZW 1013,3 17 0 0,0
17.07.2019 00:00:00 24,4 14,8 19 10 44 24 ZW 1012,0 17 0 0,0
16.07.2019 23:00:00 25,4 15,4 21 11 43 23 ZW 1011,2 16 0 0,0
16.07.2019 22:00:00 26,9 15,3 19 11 42 23 ZW 1010,1 16 5 0,0
16.07.2019 21:00:00 29,1 15,3 24 13 45 24 ZW 1008,8 14 60 0,0
16.07.2019 20:00:00 31,6 14,2 21 12 38 20 ZW 1007,8 3,5 60 -
16.07.2019 19:00:00 33,0 13,2 18 10 36 19 ZZW 1007,3 17 60 0,0
16.07.2019 18:00:00 33,9 13,4 16 8 29 16 ZZW 1007,5 15 60 0,0
16.07.2019 17:00:00 33,6 12,0 13 7 35 19 ZZW 1008,3 15 60 0,0
16.07.2019 16:00:00 33,5 13,1 12 6 33 18 ZW 1008,6 15 60 0,0
16.07.2019 15:00:00 31,9 12,6 16 8 37 20 Z 1009,5 18 60 0,0
16.07.2019 14:00:00 30,9 14,0 19 10 36 20 ZW 1010,5 15 60 -
16.07.2019 13:00:00 28,8 15,3 22 12 40 22 ZZW 1011,4 15 60 0,0
16.07.2019 12:00:00 27,3 15,0 21 12 39 21 ZZW 1012,0 14 60 0,0
16.07.2019 11:00:00 25,6 13,8 20 11 45 24 ZZW 1012,7 14 60 0,0
16.07.2019 10:00:00 23,9 14,0 21 12 - - ZZW 1013,1 16 - -
16.07.2019 09:00:00 22,3 14,7 - - - - - 1013,6 14 60 0,0
16.07.2019 08:00:00 21,0 13,0 - - - - - 1013,5 15 38 -
16.07.2019 07:00:00 20,8 11,1 14 8 31 17 Z 1013,3 16 0 0,0
16.07.2019 06:00:00 21,1 11,1 14 8 29 16 Z 1012,7 6 0 0,0
16.07.2019 05:00:00 21,2 10,0 13 7 25 14 Z 1012,6 18 0 0,0
16.07.2019 04:00:00 21,5 10,3 14 8 24 13 ZZO 1012,8 18 0 0,0
16.07.2019 03:00:00 21,8 11,8 16 8 26 14 ZZO 1012,5 16 0 0,0
16.07.2019 02:00:00 22,5 13,3 10 6 - - Z 1012,2 17 0 -
16.07.2019 01:00:00 23,8 13,9 14 8 - - ZZW 1011,5 16 0 0,0
16.07.2019 00:00:00 24,4 5,6 6 3 12 7 OZO 1010,8 17 0 0,0
15.07.2019 23:00:00 26,4 6,4 3 2 8 4 ZO 1010,0 16 0 0,0
15.07.2019 22:00:00 29,4 6,1 6 3 17 9 O - - 13 0,0
15.07.2019 21:00:00 32,8 5,3 16 9 33 18 ONO 1007,3 19 60 0,0
15.07.2019 20:00:00 34,2 5,6 22 12 39 21 NO 1006,6 19 60 -
15.07.2019 19:00:00 34,8 4,3 23 12 46 25 NNO 1006,4 20 60 0,0
15.07.2019 18:00:00 34,6 5,9 23 13 44 24 NO 1006,5 20 60 0,0
15.07.2019 17:00:00 33,8 7,0 19 11 49 27 NNO 1007,1 17 60 0,0
15.07.2019 16:00:00 33,3 7,3 29 15 47 26 N 1007,7 20 60 0,0
15.07.2019 15:00:00 32,8 8,3 24 13 48 26 NNO 1008,0 19 60 0,0
15.07.2019 14:00:00 31,8 9,3 25 14 42 23 N 1008,7 18 60 -
15.07.2019 13:00:00 31,0 10,4 - - - - - 1009,4 16 60 0,0
15.07.2019 12:00:00 28,8 12,2 9 5 24 13 N 1009,9 16 60 0,0
15.07.2019 11:00:00 26,5 14,6 10 5 18 10 NNW 1010,7 18 60 0,0
15.07.2019 10:00:00 24,8 15,4 6 3 - - NW 1011,2 15 - -
15.07.2019 09:00:00 - - - - - - - - - - -
15.07.2019 08:00:00 - - - - - - - - - - -
15.07.2019 07:00:00 - - - - - - - - - - -
15.07.2019 06:00:00 - - - - - - - - - - -
15.07.2019 05:00:00 - - - - - - - - - - -
15.07.2019 04:00:00 - - - - - - - - - - -
15.07.2019 03:00:00 - - - - - - - - - - -
15.07.2019 02:00:00 - - - - - - - - - - -
15.07.2019 01:00:00 - - - - - - - - - - -
15.07.2019 00:00:00 - - - - - - - - - - -
14.07.2019 23:00:00 - - - - - - - - - - -
14.07.2019 22:00:00 - - - - - - - - - - -
14.07.2019 21:00:00 - - - - - - - - - - -
14.07.2019 20:00:00 - - - - - - - - - - -
14.07.2019 19:00:00 - - - - - - - - - - -
14.07.2019 18:00:00 - - - - - - - - - - -
14.07.2019 17:00:00 - - - - - - - - - - -
14.07.2019 16:00:00 - - - - - - - - - - -
14.07.2019 15:00:00 - - - - - - - - - - -
14.07.2019 14:00:00 - - - - - - - - - - -
14.07.2019 13:00:00 - - - - - - - - - - -
14.07.2019 12:00:00 - - - - - - - - - - -
14.07.2019 11:00:00 - - - - - - - - - - -
14.07.2019 10:00:00 - - - - - - - - - - -
14.07.2019 09:00:00 - - - - - - - - - - -
14.07.2019 08:00:00 - - - - - - - - - - -
14.07.2019 07:00:00 - - - - - - - - - - -
14.07.2019 06:00:00 - - - - - - - - - - -
14.07.2019 05:00:00 - - - - - - - - - - -
14.07.2019 04:00:00 - - - - - - - - - - -
14.07.2019 03:00:00 - - - - - - - - - - -
14.07.2019 02:00:00 - - - - - - - - - - -
14.07.2019 01:00:00 - - - - - - - - - - -
14.07.2019 00:00:00 - - - - - - - - - - -
13.07.2019 23:00:00 - - - - - - - - - - -
13.07.2019 22:00:00 - - - - - - - - - - -
13.07.2019 21:00:00 - - - - - - - - - - -
13.07.2019 20:00:00 - - - - - - - - - - -
13.07.2019 19:00:00 - - - - - - - - - - -
13.07.2019 18:00:00 - - - - - - - - - - -
13.07.2019 17:00:00 - - - - - - - - - - -
13.07.2019 16:00:00 - - - - - - - - - - -
13.07.2019 15:00:00 - - - - - - - - - - -
13.07.2019 14:00:00 - - - - - - - - - - -
13.07.2019 13:00:00 - - - - - - - - - - -
13.07.2019 12:00:00 - - - - - - - - - - -
13.07.2019 11:00:00 - - - - - - - - - - -
13.07.2019 10:00:00 - - - - - - - - - - -
13.07.2019 09:00:00 - - - - - - - - - - -
13.07.2019 08:00:00 - - - - - - - - - - -

tt = temperatuur
td = dauwpunt
ff = windsnelheid
fx = windstoten
dd = windrichting
ppp = luchtdruk
vv = zicht
sd = Zonneschijnduur
rr = neerslag

Weerstations in de omgeving